Location: Gugi
(45.4667°N, 11.1000°E)
Time: 13:13:39
(UTC+00:00)

Cosmos 2263 Rocket - Pass Details

Date: 01 March 2020
Orbit: 822 x 850 km, 71.0° (Epoch: 08 April)

Event Time Altitude Azimuth Distance (km) Brightness Sun altitude
Rises 19:46:55 0° 339° (NNW) 3,418 5.9 -29.1°
Reaches altitude 10° 19:49:37 10° 349° (N) 2,482 5.0 -29.5°
Enters shadow 19:52:42 26° 15° (NNE) 1,618 3.7 -30.0°
